Glasgow, United Kingdom

8:08 AM BST on September 20, 2017 (GMT +0100)
Glasgow

Weather History for EGPF - November, 2013

Change the Weather History Date:

Tuesday, November 19, 2013

  Actual Average Record
Temperature  
Mean Temperature 36 °F -  
Max Temperature 44 °F 44 °F 55 °F (2003)
Min Temperature 28 °F 34 °F 19 °F (2005)
Degree Days  
Heating Degree Days 29    
Moisture  
Dew Point 32 °F    
Average Humidity 86    
Maximum Humidity 93    
Minimum Humidity 75    
Precipitation  
Precipitation 0.00 in - - ()
Sea Level Pressure  
Sea Level Pressure 29.88 in    
Wind  
Wind Speed 7 mph ()    
Max Wind Speed 24 mph    
Max Gust Speed -    
Visibility 5.8 miles    
Events Rain    
Averages and records for this station are not official NWS values.
T = Trace of Precipitation, MM = Missing Value Source: Averaged Metar Reports

Daily Weather History Graph

Daily Weather History Graph

Search for Another Location

Airport or City:

Trip Planner

Search our weather history database for the weather conditions in past years. The results will help you decide how hot, cold, wet, or windy it might be!

Date:

Astronomy

Nov. 19, 2013 Rise Set
Actual Time 8:01 AM GMT 4:03 PM GMT
Civil Twilight 7:18 AM GMT 4:46 PM GMT
Nautical Twilight 6:32 AM GMT 5:32 PM GMT
Astronomical Twilight 5:48 AM GMT 6:16 PM GMT
Moon 5:39 PM GMT (11/19) 9:33 AM GMT (11/19)
Length of Visible Light 9h 27m
Length of Day
8h 01m
Full, 97% of the Moon is Illuminated
Nov 19
Full
Nov 25
Last Quarter
Dec 3
New
Dec 9
First Quarter
Dec 17
Full

Hourly Weather History & Observations

Time (GMT) Temp. Windchill Dew Point Humidity Pressure Visibility Wind Dir Wind Speed Gust Speed Precip Events Conditions
12:20 AM 33.8 °F 29.6 °F 32.0 °F 93% 29.80 in - West 4.6 mph - N/A   Clear
12:50 AM 32.0 °F 28.7 °F 30.2 °F 93% 29.80 in - Variable 3.5 mph - N/A   Clear
1:20 AM 33.8 °F 27.7 °F 30.2 °F 87% 29.80 in - West 6.9 mph - N/A   Clear
1:50 AM 32.0 °F 28.7 °F 30.2 °F 93% 29.80 in - Variable 3.5 mph - N/A   Clear
2:20 AM 30.2 °F 23.4 °F 28.4 °F 93% 29.80 in - SSE 6.9 mph - N/A   Clear
2:50 AM 33.8 °F 28.6 °F 30.2 °F 87% 29.80 in - West 5.8 mph - N/A   Clear
3:20 AM 32.0 °F 25.6 °F 28.4 °F 87% 29.80 in - West 6.9 mph - N/A   Clear
3:50 AM 30.2 °F - 28.4 °F 93% 29.80 in - Variable 2.3 mph - N/A   Clear
4:20 AM 30.2 °F 24.3 °F 28.4 °F 93% 29.83 in - West 5.8 mph - N/A   Clear
4:50 AM 30.2 °F 25.4 °F 28.4 °F 93% 29.83 in - NNW 4.6 mph - N/A   Clear
5:20 AM 28.4 °F - 24.8 °F 86% 29.86 in - Calm Calm - N/A   Clear
5:50 AM 30.2 °F 25.4 °F 28.4 °F 93% 29.86 in - WNW 4.6 mph - N/A   Clear
6:20 AM 30.2 °F 26.7 °F 26.6 °F 86% 29.89 in - West 3.5 mph - N/A   Clear
6:50 AM 28.4 °F 23.3 °F 26.6 °F 93% 29.92 in - West 4.6 mph - N/A   Clear
7:20 AM 32.0 °F 24.8 °F 28.4 °F 87% 29.95 in - NW 8.1 mph - N/A   Clear
7:50 AM 32.0 °F 26.4 °F 26.6 °F 80% 29.95 in - WNW 5.8 mph - N/A   Clear
8:20 AM 28.4 °F 22.2 °F 26.6 °F 93% 29.98 in - WSW 5.8 mph - N/A   Clear
8:50 AM 30.2 °F 23.4 °F 28.4 °F 93% 29.98 in - West 6.9 mph - N/A   Clear
9:20 AM 32.0 °F 26.4 °F 28.4 °F 87% 29.98 in - West 5.8 mph - N/A   Clear
9:50 AM 33.8 °F 30.8 °F 28.4 °F 81% 30.01 in - WNW 3.5 mph - N/A   Clear
10:20 AM 35.6 °F - 30.2 °F 81% 30.01 in - West 2.3 mph - N/A   Clear
10:50 AM 35.6 °F 29.9 °F 30.2 °F 81% 30.04 in - West 6.9 mph - N/A   Clear
11:20 AM 37.4 °F 31.4 °F 32.0 °F 81% 30.01 in - WNW 8.1 mph - N/A   Clear
11:50 AM 37.4 °F 31.4 °F 32.0 °F 81% 30.01 in - WNW 8.1 mph - N/A   Clear
12:20 PM 37.4 °F 32.1 °F 32.0 °F 81% 30.01 in - WSW 6.9 mph - N/A   Clear
12:50 PM 39.2 °F 35.0 °F 32.0 °F 75% 30.01 in - WSW 5.8 mph - N/A   Clear
1:20 PM 37.4 °F 31.4 °F 32.0 °F 81% 30.01 in - SW 8.1 mph - N/A   Clear
1:50 PM 37.4 °F 32.8 °F 32.0 °F 81% 30.01 in - SW 5.8 mph - N/A   Clear
2:20 PM 37.4 °F 32.1 °F 30.2 °F 75% 30.01 in - West 6.9 mph - N/A   Clear
2:50 PM 35.6 °F 29.2 °F 28.4 °F 75% 30.01 in - WSW 8.1 mph - N/A   Clear
3:20 PM 35.6 °F 30.7 °F 30.2 °F 81% 30.01 in 6.2 mi SW 5.8 mph - N/A   Partly Cloudy
3:50 PM 33.8 °F 28.6 °F 30.2 °F 87% 29.98 in - SW 5.8 mph - N/A   Clear
4:20 PM 33.8 °F 27.7 °F 30.2 °F 87% 29.98 in - SW 6.9 mph - N/A   Clear
4:50 PM 33.8 °F 27.7 °F 30.2 °F 87% 29.95 in - SW 6.9 mph - N/A   Clear
5:20 PM 35.6 °F 29.9 °F 30.2 °F 81% 29.95 in - SW 6.9 mph - N/A   Clear
5:50 PM 37.4 °F 30.8 °F 32.0 °F 81% 29.92 in - SW 9.2 mph - N/A   Clear
6:20 PM 39.2 °F 33.6 °F 32.0 °F 75% 29.92 in 6.2 mi SSW 8.1 mph - N/A Rain Light Rain
6:50 PM 39.2 °F 31.2 °F 33.8 °F 81% 29.89 in 6.2 mi SW 13.8 mph - N/A Rain Light Rain
7:20 PM 39.2 °F 30.5 °F 35.6 °F 87% 29.86 in 6.2 mi SW 16.1 mph - N/A Rain Light Rain
7:50 PM 41.0 °F 31.9 °F 37.4 °F 87% 29.80 in 6.2 mi SW 19.6 mph - N/A Rain Rain
8:20 PM 41.0 °F 30.9 °F 39.2 °F 93% 29.77 in 3.1 mi SW 24.2 mph - N/A Rain Rain
8:50 PM 42.8 °F 33.8 °F 39.2 °F 87% 29.77 in 4.3 mi SW 21.9 mph - N/A Rain Rain
9:20 PM 42.8 °F 33.3 °F 41.0 °F 93% 29.71 in 6.2 mi SW 24.2 mph - N/A Rain Light Rain
9:50 PM 42.8 °F 33.8 °F 41.0 °F 93% 29.68 in 6.2 mi SW 21.9 mph - N/A Rain Light Rain
10:20 PM 42.8 °F 36.2 °F 39.2 °F 87% 29.68 in 6.2 mi WNW 12.7 mph - N/A Rain Light Rain
10:50 PM 44.6 °F 36.6 °F 41.0 °F 87% 29.65 in 6.2 mi WSW 19.6 mph - N/A   Mostly Cloudy
11:20 PM 44.6 °F 37.4 °F 41.0 °F 87% 29.62 in 6.2 mi WSW 16.1 mph - N/A Rain Light Rain
11:50 PM 44.6 °F 37.4 °F 41.0 °F 87% 29.62 in 6.2 mi WSW 16.1 mph - N/A   Mostly Cloudy